User: anonymous   Login
Location: Unspecified
(0.0000°N, 0.0000°E)
Time: 07:21:35
(UTC+00:00)
Language:

KITSAT 1 - Orbit

View from above orbital plane
View from above orbital plane
View from above satellite
View from above satellite

Ground track
Ground track

The orbit is defined by the following mean orbital elements,

1 22077U          26106.61693939 +.00000000 +00000-0 -20635-4 0 00003
2 22077  66.0863  50.0958 0014156 297.9051 234.2699 12.86610890    02
Epoch (UTC): 16 April 2026 14:48:23
Eccentricity: 0.0014156
inclination: 66.0863°
perigee height: 1304 km
apogee height: 1326 km
right ascension of ascending node: 50.0958°
argument of perigee: 297.9051°
revolutions per day: 12.86610890
mean anomaly at epoch: 234.2699°

The dashed part of the orbit path shows where the satellite is in the earth's shadow,  

DLR